軌道要素
Epoch 2022 Jan. 21.0 TT = JDT 2459600.5
T 2021 Oct. 17.39709 TT Rudenko
q 1.7200364 (2000.0) P Q
n 0.15397446 Peri. 115.25489 +0.55935781 +0.82889163
a 3.4474945 Node 188.76830 -0.77729998 +0.52132055
e 0.5010764 Incl. 2.85133 -0.28796455 +0.20288801
P 6.40
From 1189 observations 2015 Feb. 18-2022 Jan. 24, mean residual 0".7.
|